TimeMST,TemperatureF,Dew PointF,Humidity,Sea Level PressureIn,VisibilityMPH,Wind Direction,Wind SpeedMPH,Gust SpeedMPH,PrecipitationIn,Events,Conditions,WindDirDegrees,DateUTC
12:15 AM,19.4,14.0,80,29.54,-9999.0,Calm,Calm,-,0.01,Snow,Light Snow,0,2012-12-19 07:15:00
12:35 AM,19.4,14.0,80,29.53,-9999.0,NNW,8.1,-,0.01,Snow,Light Snow,340,2012-12-19 07:35:00
12:55 AM,19.4,14.0,80,29.53,-9999.0,NNW,13.8,23.0,0.01,Snow,Light Snow,340,2012-12-19 07:55:00
1:15 AM,19.4,12.2,74,29.53,-9999.0,NNW,13.8,20.7,N/A,Snow,Snow,340,2012-12-19 08:15:00
1:34 AM,17.6,12.2,79,29.53,-9999.0,NNW,11.5,18.4,N/A,Snow,Snow,340,2012-12-19 08:34:00
1:55 AM,17.6,12.2,79,29.53,-9999.0,NW,12.7,19.6,N/A,Snow,Snow,320,2012-12-19 08:55:00
2:14 AM,17.6,12.2,79,29.52,-9999.0,NW,13.8,25.3,N/A,Snow,Snow,320,2012-12-19 09:14:00
2:35 AM,17.6,12.2,79,29.51,-9999.0,NNW,13.8,27.6,N/A,Snow,Snow,330,2012-12-19 09:35:00
2:55 AM,17.6,10.4,73,29.51,-9999.0,NW,15.0,29.9,N/A,Snow,Snow,320,2012-12-19 09:55:00
3:15 AM,17.6,10.4,73,29.52,-9999.0,NNW,18.4,28.8,0.01,Snow,Snow,330,2012-12-19 10:15:00
3:35 AM,17.6,10.4,73,29.52,-9999.0,NNW,13.8,26.5,0.01,Snow,Snow,330,2012-12-19 10:35:00
3:55 AM,17.6,10.4,73,29.52,-9999.0,NNW,13.8,24.2,0.01,Snow,Light Snow,330,2012-12-19 10:55:00
4:15 AM,17.6,10.4,73,29.58,-9999.0,NW,21.9,27.6,N/A,Snow,Snow,320,2012-12-19 11:15:00
4:35 AM,15.8,10.4,79,29.54,-9999.0,NNW,17.3,28.8,N/A,Snow,Snow,340,2012-12-19 11:35:00
4:55 AM,15.8,10.4,79,29.54,-9999.0,NW,11.5,-,N/A,Snow,Light Snow,320,2012-12-19 11:55:00
5:14 AM,15.8,10.4,79,29.57,-9999.0,NW,12.7,16.1,N/A,Snow,Light Snow,310,2012-12-19 12:14:00
5:35 AM,17.6,8.6,68,29.59,-9999.0,NW,9.2,-,N/A,Snow,Light Snow,310,2012-12-19 12:35:00
5:55 AM,17.6,8.6,68,29.59,-9999.0,NW,10.4,-,N/A,Snow,Light Snow,310,2012-12-19 12:55:00
6:15 AM,15.8,8.6,73,29.60,-9999.0,NW,11.5,16.1,N/A,Snow,Light Snow,310,2012-12-19 13:15:00
6:35 AM,14.0,8.6,79,29.60,-9999.0,NNW,13.8,17.3,N/A,Snow,Light Snow,330,2012-12-19 13:35:00
6:55 AM,14.0,10.4,86,29.61,-9999.0,NNW,16.1,23.0,N/A,Snow,Light Snow,330,2012-12-19 13:55:00
7:15 AM,14.0,8.6,79,29.61,-9999.0,NNW,12.7,26.5,N/A,Snow,Light Snow,340,2012-12-19 14:15:00
7:35 AM,14.0,8.6,79,29.62,-9999.0,NNW,18.4,26.5,N/A,Snow,Light Snow,330,2012-12-19 14:35:00
7:55 AM,14.0,8.6,79,29.64,-9999.0,NNW,16.1,21.9,N/A,Snow,Light Snow,340,2012-12-19 14:55:00
8:15 AM,14.0,8.6,79,29.65,-9999.0,NNW,15.0,25.3,N/A,Snow,Light Snow,330,2012-12-19 15:15:00
8:35 AM,14.0,8.6,79,29.66,-9999.0,North,16.1,24.2,N/A,Snow,Light Snow,350,2012-12-19 15:35:00
8:55 AM,14.0,6.8,73,29.67,-9999.0,NNW,15.0,26.5,N/A,Snow,Light Snow,340,2012-12-19 15:55:00
9:15 AM,14.0,6.8,73,29.69,-9999.0,NW,12.7,21.9,N/A,Snow,Light Snow,320,2012-12-19 16:15:00
9:35 AM,14.0,5.0,67,29.70,-9999.0,NNW,15.0,25.3,N/A,,Overcast,330,2012-12-19 16:35:00
9:55 AM,14.0,5.0,67,29.73,-9999.0,NNW,12.7,24.2,N/A,,Overcast,330,2012-12-19 16:55:00
10:15 AM,14.0,5.0,67,29.73,-9999.0,NW,12.7,23.0,N/A,Snow,Light Snow,320,2012-12-19 17:15:00
10:35 AM,14.0,6.8,73,29.75,-9999.0,North,11.5,25.3,N/A,Snow,Light Snow,350,2012-12-19 17:35:00
10:55 AM,14.0,5.0,67,29.77,-9999.0,NNW,11.5,18.4,N/A,,Overcast,330,2012-12-19 17:55:00
11:15 AM,15.8,3.2,58,29.78,-9999.0,NW,10.4,17.3,N/A,,Overcast,320,2012-12-19 18:15:00
11:35 AM,14.0,3.2,62,29.78,-9999.0,NW,16.1,24.2,N/A,,Overcast,320,2012-12-19 18:35:00
11:55 AM,15.8,3.2,58,29.79,-9999.0,NW,12.7,24.2,N/A,,Overcast,320,2012-12-19 18:55:00
12:15 PM,17.6,3.2,53,29.81,-9999.0,NNW,11.5,18.4,N/A,,Overcast,330,2012-12-19 19:15:00
12:35 PM,17.6,1.4,49,29.82,-9999.0,NW,9.2,16.1,N/A,,Overcast,320,2012-12-19 19:35:00
12:55 PM,17.6,1.4,49,29.84,-9999.0,NW,10.4,-,N/A,,Overcast,310,2012-12-19 19:55:00
1:14 PM,17.6,-0.4,45,29.85,-9999.0,NW,5.8,-,N/A,,Overcast,310,2012-12-19 20:14:00
1:35 PM,17.6,-0.4,45,29.86,-9999.0,NW,9.2,-,N/A,,Overcast,310,2012-12-19 20:35:00
1:55 PM,17.6,1.4,49,29.86,-9999.0,WNW,8.1,-,N/A,,Overcast,300,2012-12-19 20:55:00
2:15 PM,17.6,3.2,53,29.87,-9999.0,NW,6.9,-,N/A,,Overcast,310,2012-12-19 21:15:00
2:35 PM,17.6,3.2,53,29.89,-9999.0,NW,6.9,-,N/A,,Overcast,320,2012-12-19 21:35:00
2:55 PM,17.6,3.2,53,29.91,-9999.0,NNW,8.1,-,N/A,,Overcast,330,2012-12-19 21:55:00
3:15 PM,17.6,1.4,49,29.92,-9999.0,NNW,8.1,-,N/A,,Overcast,330,2012-12-19 22:15:00
3:35 PM,17.6,1.4,49,29.94,-9999.0,NNW,6.9,-,N/A,,Scattered Clouds,340,2012-12-19 22:35:00
3:55 PM,17.6,-2.2,42,29.95,-9999.0,NNW,9.2,-,N/A,,Scattered Clouds,340,2012-12-19 22:55:00
4:15 PM,14.0,-2.2,49,29.97,-9999.0,NNW,8.1,-,N/A,,Mostly Cloudy,330,2012-12-19 23:15:00
4:35 PM,14.0,-0.4,53,29.99,-9999.0,NNW,5.8,-,N/A,,Overcast,340,2012-12-19 23:35:00
4:55 PM,12.2,-4.0,48,30.00,-9999.0,NNE,9.2,-,N/A,,Scattered Clouds,20,2012-12-19 23:55:00
5:15 PM,10.4,-4.0,52,30.02,-9999.0,North,5.8,-,N/A,,Clear,360,2012-12-20 00:15:00
5:34 PM,10.4,-4.0,52,30.04,-9999.0,NNE,6.9,-,N/A,,Clear,20,2012-12-20 00:34:00
5:55 PM,10.4,-5.8,48,30.06,-9999.0,North,5.8,-,N/A,,Clear,10,2012-12-20 00:55:00
6:14 PM,8.6,-7.6,48,30.07,-9999.0,North,5.8,-,N/A,,Clear,360,2012-12-20 01:14:00
6:35 PM,6.8,-5.8,56,30.08,-9999.0,North,4.6,-,N/A,,Clear,10,2012-12-20 01:35:00
6:54 PM,8.6,-5.8,52,30.09,-9999.0,NNW,5.8,-,N/A,,Clear,340,2012-12-20 01:54:00
7:15 PM,8.6,-7.6,48,30.11,-9999.0,NW,3.5,-,N/A,,Clear,310,2012-12-20 02:15:00
7:35 PM,5.0,-9.4,52,30.12,-9999.0,Calm,Calm,-,N/A,,Clear,0,2012-12-20 02:35:00
7:55 PM,3.2,-9.4,56,30.15,-9999.0,Calm,Calm,-,N/A,,Clear,0,2012-12-20 02:55:00
8:15 PM,-4.0,-14.8,60,30.16,-9999.0,Calm,Calm,-,N/A,,Clear,0,2012-12-20 03:15:00
8:35 PM,-5.8,-13.0,71,30.17,-9999.0,Calm,Calm,-,N/A,,Clear,0,2012-12-20 03:35:00
8:55 PM,-9.4,-16.6,71,30.19,-9999.0,ESE,3.5,-,N/A,,Clear,110,2012-12-20 03:55:00
9:15 PM,-7.6,-14.8,71,30.20,-9999.0,ESE,5.8,-,N/A,,Clear,120,2012-12-20 04:15:00
9:35 PM,-7.6,-14.8,71,30.21,-9999.0,ENE,3.5,-,N/A,,Clear,70,2012-12-20 04:35:00
9:54 PM,-7.6,-14.8,71,30.22,-9999.0,ENE,3.5,-,N/A,,Clear,60,2012-12-20 04:54:00
10:14 PM,-7.6,-14.8,71,30.24,-9999.0,ESE,4.6,-,N/A,,Clear,110,2012-12-20 05:14:00
10:35 PM,-9.4,-16.6,71,30.24,-9999.0,Calm,Calm,-,N/A,,Clear,0,2012-12-20 05:35:00
10:55 PM,-11.2,-18.4,70,30.26,-9999.0,Calm,Calm,-,N/A,,Clear,0,2012-12-20 05:55:00
11:15 PM,-13.0,-18.4,77,30.27,-9999.0,Calm,Calm,-,N/A,,Clear,0,2012-12-20 06:15:00
11:35 PM,-13.0,-18.4,77,30.29,-9999.0,Calm,Calm,-,N/A,,Clear,0,2012-12-20 06:35:00
11:55 PM,-13.0,-18.4,77,30.30,-9999.0,Calm,Calm,-,N/A,,Clear,0,2012-12-20 06:55:00